Previsão horária em Barra do Bugres

Hoje, 20 Outubro, Terça-feira

Tempo Temperatura Precipitação Vento Pressão Humidade
00:00 +26°C° 0 mm 1 m/s 744 mmHg 83%
01:00 +26°C° 0 mm 1 m/s 744 mmHg 83%
02:00 +26°C° 0 mm 1 m/s 744 mmHg 83%
03:00 +25°C° 0 mm 1 m/s 744 mmHg 83%
04:00 +25°C° 0 mm 1 m/s 744 mmHg 83%
05:00 +25°C° 0 mm 1 m/s 744 mmHg 83%
06:00 +26°C° 0 mm 1 m/s 745 mmHg 78%
07:00 +25°C° 0 mm 0 m/s 745 mmHg 72%
08:00 +27°C° 0 mm 0 m/s 746 mmHg 66%
09:00 +31°C° 0 mm 1 m/s 746 mmHg 59%
10:00 +33°C° 0 mm 1 m/s 746 mmHg 51%
11:00 +35°C° 0 mm 1 m/s 746 mmHg 44%
12:00 +35°C° 0 mm 1 m/s 746 mmHg 45%
13:00 +34°C° 0 mm 1 m/s 745 mmHg 47%
14:00 +33°C° 0 mm 1 m/s 744 mmHg 48%
15:00 +32°C° 0 mm 1 m/s 743 mmHg 51%
16:00 +32°C° 0 mm 1 m/s 743 mmHg 53%
17:00 +29°C° 0 mm 0 m/s 742 mmHg 55%
18:00 +27°C° 0 mm 0 m/s 742 mmHg 59%
19:00 +28°C° 0 mm 1 m/s 743 mmHg 63%
20:00 +27°C° 0 mm 1 m/s 743 mmHg 67%
21:00 +26°C° 0 mm 1 m/s 744 mmHg 67%
22:00 +26°C° 0 mm 1 m/s 744 mmHg 68%
23:00 +26°C° 0 mm 1 m/s 745 mmHg 69%

Amanhã, 21 Outubro, Quarta-feira

Tempo Temperatura Precipitação Vento Pressão Humidade
00:00 +26°C° 0 mm 1 m/s 744 mmHg 70%
01:00 +25°C° 0 mm 1 m/s 744 mmHg 71%
02:00 +25°C° 0 mm 1 m/s 744 mmHg 72%
03:00 +25°C° 0 mm 1 m/s 744 mmHg 74%
04:00 +24°C° 0 mm 1 m/s 744 mmHg 76%
05:00 +24°C° 0 mm 1 m/s 744 mmHg 78%
06:00 +27°C° 0 mm 1 m/s 745 mmHg 69%
07:00 +30°C° 0 mm 1 m/s 746 mmHg 59%
08:00 +33°C° 0 mm 1 m/s 746 mmHg 50%
09:00 +37°C° 0 mm 1 m/s 746 mmHg 41%
10:00 +39°C° 0 mm 0 m/s 746 mmHg 33%
11:00 +42°C° 0 mm 0 m/s 746 mmHg 24%
12:00 +44°C° 0 mm 1 m/s 745 mmHg 24%
13:00 +43°C° 0 mm 1 m/s 744 mmHg 24%
14:00 +42°C° 0 mm 1 m/s 743 mmHg 24%
15:00 +40°C° 0 mm 1 m/s 743 mmHg 30%
16:00 +36°C° 0 mm 1 m/s 743 mmHg 37%
17:00 +34°C° 0 mm 1 m/s 742 mmHg 43%
18:00 +32°C° 0.1 mm 1 m/s 743 mmHg 49%
19:00 +31°C° 0.1 mm 1 m/s 743 mmHg 55%
20:00 +29°C° 0.1 mm 1 m/s 744 mmHg 61%
21:00 +29°C° 0 mm 1 m/s 744 mmHg 64%
22:00 +26°C° 0 mm 0 m/s 744 mmHg 66%
23:00 +25°C° 0 mm 0 m/s 744 mmHg 69%

Depois de amanhã, 22 Outubro, Quinta-feira

Tempo Temperatura Precipitação Vento Pressão Humidade
00:00 +25°C° 0 mm 0 m/s 744 mmHg 70%
01:00 +25°C° 0 mm 0 m/s 743 mmHg 71%
02:00 +24°C° 0 mm 0 m/s 743 mmHg 72%
03:00 +24°C° 0 mm 0 m/s 743 mmHg 73%
04:00 +24°C° 0 mm 0 m/s 743 mmHg 74%
05:00 +23°C° 0 mm 0 m/s 743 mmHg 76%
06:00 +27°C° 0 mm 0 m/s 744 mmHg 65%
07:00 +30°C° 0 mm 0 m/s 744 mmHg 54%
08:00 +33°C° 0 mm 0 m/s 745 mmHg 44%
09:00 +37°C° 0 mm 0 m/s 745 mmHg 37%
10:00 +40°C° 0 mm 0 m/s 745 mmHg 30%
11:00 +43°C° 0 mm 0 m/s 745 mmHg 24%
12:00 +44°C° 0.1 mm 1 m/s 743 mmHg 26%
13:00 +43°C° 0.1 mm 1 m/s 742 mmHg 29%
14:00 +41°C° 0.1 mm 2 m/s 741 mmHg 31%
15:00 +38°C° 0.5 mm 2 m/s 741 mmHg 42%
16:00 +34°C° 0.5 mm 2 m/s 741 mmHg 53%
17:00 +30°C° 0.5 mm 2 m/s 741 mmHg 63%
18:00 +29°C° 0.5 mm 2 m/s 741 mmHg 69%
19:00 +27°C° 0.5 mm 2 m/s 742 mmHg 75%
20:00 +26°C° 0.5 mm 1 m/s 742 mmHg 81%
21:00 +26°C° 0 mm 1 m/s 742 mmHg 82%
22:00 +26°C° 0 mm 1 m/s 742 mmHg 83%
23:00 +26°C° 0 mm 1 m/s 743 mmHg 83%

23 Outubro, Sexta-feira

Tempo Temperatura Precipitação Vento Pressão Humidade
00:00 +26°C° 0 mm 1 m/s 742 mmHg 84%
01:00 +23°C° 0 mm 0 m/s 742 mmHg 84%
02:00 +23°C° 0 mm 0 m/s 742 mmHg 85%
03:00 +23°C° 0 mm 0 m/s 742 mmHg 85%
04:00 +23°C° 0 mm 0 m/s 742 mmHg 86%
05:00 +23°C° 0 mm 0 m/s 742 mmHg 87%
06:00 +25°C° 0 mm 0 m/s 743 mmHg 76%
07:00 +30°C° 0 mm 1 m/s 743 mmHg 66%
08:00 +32°C° 0 mm 1 m/s 744 mmHg 55%
09:00 +35°C° 0 mm 1 m/s 744 mmHg 47%
10:00 +39°C° 0 mm 2 m/s 743 mmHg 38%
11:00 +42°C° 0 mm 2 m/s 743 mmHg 30%
12:00 +42°C° 0 mm 2 m/s 742 mmHg 30%
13:00 +42°C° 0 mm 1 m/s 741 mmHg 30%
14:00 +41°C° 0 mm 1 m/s 740 mmHg 30%
15:00 +37°C° 0.4 mm 1 m/s 739 mmHg 42%
16:00 +35°C° 0.4 mm 2 m/s 739 mmHg 54%
17:00 +30°C° 0.4 mm 2 m/s 738 mmHg 67%
18:00 +29°C° 0.7 mm 1 m/s 739 mmHg 71%
19:00 +28°C° 0.7 mm 1 m/s 739 mmHg 76%
20:00 +25°C° 0.7 mm 0 m/s 740 mmHg 81%
21:00 +27°C° 0.7 mm 1 m/s 741 mmHg 84%
22:00 +26°C° 0.7 mm 1 m/s 741 mmHg 87%
23:00 +26°C° 0.7 mm 1 m/s 742 mmHg 90%

24 Outubro, Sábado

Tempo Temperatura Precipitação Vento Pressão Humidade
00:00 +26°C° 1 mm 1 m/s 742 mmHg 91%
01:00 +26°C° 1 mm 1 m/s 741 mmHg 92%
02:00 +25°C° 1 mm 1 m/s 741 mmHg 93%
03:00 +25°C° 0 mm 1 m/s 741 mmHg 93%
04:00 +25°C° 0 mm 1 m/s 741 mmHg 94%
05:00 +25°C° 0 mm 1 m/s 741 mmHg 95%
06:00 +27°C° 0 mm 1 m/s 742 mmHg 89%
07:00 +28°C° 0 mm 2 m/s 743 mmHg 82%
08:00 +29°C° 0 mm 2 m/s 743 mmHg 76%
09:00 +32°C° 0 mm 2 m/s 743 mmHg 66%
10:00 +35°C° 0 mm 2 m/s 743 mmHg 55%
11:00 +38°C° 0 mm 2 m/s 743 mmHg 45%
12:00 +38°C° 0 mm 2 m/s 742 mmHg 43%
13:00 +39°C° 0 mm 1 m/s 741 mmHg 41%
14:00 +39°C° 0 mm 1 m/s 740 mmHg 39%
15:00 +35°C° 3.5 mm 1 m/s 740 mmHg 56%
16:00 +31°C° 3.5 mm 2 m/s 739 mmHg 73%
17:00 +27°C° 3.5 mm 2 m/s 739 mmHg 90%
18:00 +26°C° 1.3 mm 2 m/s 740 mmHg 91%
19:00 +26°C° 1.3 mm 2 m/s 740 mmHg 91%
20:00 +25°C° 1.3 mm 2 m/s 741 mmHg 92%
21:00 +25°C° 0 mm 2 m/s 741 mmHg 91%
22:00 +25°C° 0 mm 2 m/s 741 mmHg 90%
23:00 +26°C° 0 mm 2 m/s 741 mmHg 89%

25 Outubro, Domingo

Tempo Temperatura Precipitação Vento Pressão Humidade
00:00 +26°C° 0 mm 2 m/s 741 mmHg 90%
01:00 +25°C° 0 mm 2 m/s 741 mmHg 90%
02:00 +25°C° 0 mm 1 m/s 740 mmHg 91%
03:00 +25°C° 0 mm 1 m/s 740 mmHg 91%
04:00 +25°C° 0 mm 1 m/s 741 mmHg 91%
05:00 +25°C° 0 mm 1 m/s 741 mmHg 91%
06:00 +27°C° 0 mm 2 m/s 741 mmHg 81%
07:00 +29°C° 0 mm 2 m/s 742 mmHg 72%
08:00 +31°C° 0 mm 2 m/s 743 mmHg 63%
09:00 +34°C° 0 mm 3 m/s 743 mmHg 55%
10:00 +36°C° 0 mm 3 m/s 743 mmHg 47%
11:00 +39°C° 0 mm 3 m/s 743 mmHg 39%
12:00 +40°C° 0 mm 3 m/s 742 mmHg 37%
13:00 +41°C° 0 mm 4 m/s 741 mmHg 34%
14:00 +42°C° 0 mm 4 m/s 740 mmHg 31%
15:00 +40°C° 0 mm 3 m/s 740 mmHg 34%
16:00 +39°C° 0 mm 3 m/s 739 mmHg 38%
17:00 +37°C° 0 mm 3 m/s 739 mmHg 41%
18:00 +35°C° 0.1 mm 2 m/s 739 mmHg 49%
19:00 +32°C° 0.1 mm 2 m/s 740 mmHg 57%
20:00 +29°C° 0.1 mm 1 m/s 740 mmHg 65%
21:00 +29°C° 0 mm 1 m/s 740 mmHg 67%
22:00 +28°C° 0 mm 1 m/s 740 mmHg 69%
23:00 +28°C° 0 mm 1 m/s 741 mmHg 71%

26 Outubro, Segunda-feira

Tempo Temperatura Precipitação Vento Pressão Humidade
00:00 +27°C° 0.2 mm 1 m/s 740 mmHg 75%
01:00 +27°C° 0.2 mm 1 m/s 740 mmHg 78%
02:00 +26°C° 0.2 mm 1 m/s 740 mmHg 82%
03:00 +26°C° 0.1 mm 1 m/s 740 mmHg 82%
04:00 +26°C° 0.1 mm 1 m/s 741 mmHg 83%
05:00 +26°C° 0.1 mm 1 m/s 741 mmHg 84%
06:00 +28°C° 0.3 mm 1 m/s 742 mmHg 76%
07:00 +28°C° 0.3 mm 0 m/s 743 mmHg 68%
08:00 +31°C° 0.3 mm 0 m/s 743 mmHg 61%
09:00 +35°C° 0 mm 1 m/s 743 mmHg 51%
10:00 +39°C° 0 mm 1 m/s 743 mmHg 42%
11:00 +41°C° 0 mm 1 m/s 742 mmHg 32%
12:00 +41°C° 0 mm 1 m/s 741 mmHg 34%
13:00 +40°C° 0 mm 1 m/s 740 mmHg 36%
14:00 +39°C° 0 mm 1 m/s 739 mmHg 38%
15:00 +35°C° 2.3 mm 2 m/s 739 mmHg 56%
16:00 +29°C° 2.3 mm 2 m/s 739 mmHg 74%
17:00 +25°C° 2.3 mm 2 m/s 739 mmHg 91%
18:00 +25°C° 1 mm 2 m/s 739 mmHg 91%
19:00 +25°C° 1 mm 1 m/s 740 mmHg 92%
20:00 +25°C° 1 mm 1 m/s 741 mmHg 92%
21:00 +23°C° 0.5 mm 0 m/s 742 mmHg 93%
22:00 +23°C° 0.5 mm 0 m/s 742 mmHg 93%
23:00 +23°C° 0.5 mm 0 m/s 742 mmHg 94%
Mostrar mais